EW5195 Weather Reports


Display with metric or nautical units.
time (UTC)temp
F
wind
direction
speed
MPH
gust
MPH
rain 1hr
in
rain 24hr
in
rain mn
in
humidity
%
barometer
mb
20260507171603 56 0 0.0 1.0 0.00 0.06 0.06 81 1012.4
20260507170056 55 0 0.0 0.0 0.00 0.06 0.06 80 1012.9
20260507164556 55 0 0.0 0.0 0.00 0.06 0.06 77 1013.2
20260507163106 55 0 0.0 3.0 0.00 0.06 0.06 77 1013.2
20260507161558 55 0 0.0 3.0 0.00 0.06 0.06 76 1013.0
20260507160056 55 5 1.0 8.0 0.00 0.06 0.06 76 1013.3
20260507154606 55 5 3.0 6.0 0.00 0.10 0.06 77 1013.2
20260507153058 55 9 0.0 4.0 0.00 0.10 0.06 80 1013.0
20260507151554 56 0 0.0 1.0 0.00 0.10 0.06 81 1013.1
20260507150059 56 0 0.0 1.0 0.00 0.10 0.06 81 1013.1
20260507144556 56 0 2.0 5.0 0.00 0.12 0.06 80 1012.8
20260507143107 56 0 0.0 4.0 0.00 0.12 0.06 81 1012.9
20260507141552 57 80 2.0 5.0 0.00 0.12 0.06 82 1013.3
20260507140057 57 0 1.0 4.0 0.00 0.12 0.06 84 1013.1
20260507134601 57 40 0.0 7.0 0.00 0.12 0.06 86 1013.2
20260507133100 56 0 0.0 4.0 0.00 0.12 0.06 86 1013.0
20260507131611 56 19 1.0 4.0 0.00 0.12 0.06 88 1012.8
20260507130052 56 0 0.0 3.0 0.00 0.12 0.06 88 1012.8
20260507124553 56 344 1.0 5.0 0.00 0.12 0.06 89 1013.1
20260507123055 56 0 0.0 0.0 0.00 0.12 0.06 91 1012.4
20260507121554 56 0 0.0 3.0 0.00 0.12 0.06 91 1012.3
20260507120058 56 0 0.0 2.0 0.00 0.12 0.06 91 1012.3
20260507114553 56 0 0.0 0.0 0.02 0.12 0.06 91 1012.8
20260507113053 56 0 0.0 1.0 0.02 0.12 0.06 91 1012.6
20260507111553 56 0 0.0 3.0 0.03 0.12 0.06 91 1012.4
20260507110053 56 0 0.0 1.0 0.03 0.12 0.06 91 1012.4
20260507104552 56 0 0.0 6.0 0.01 0.10 0.04 90 1012.1
20260507103052 57 5 1.0 4.0 0.02 0.10 0.04 90 1011.4
20260507101554 57 9 1.0 4.0 0.01 0.09 0.03 90 1011.0
20260507100053 57 360 2.0 5.0 0.01 0.09 0.03 90 1011.7
20260507094551 58 0 2.0 4.0 0.01 0.09 0.03 90 1011.3
20260507093055 59 5 2.0 5.0 0.00 0.08 0.02 90 1011.4
20260507091552 60 0 0.0 5.0 0.01 0.08 0.02 89 1011.3
20260507090049 62 352 3.0 8.0 0.01 0.08 0.02 88 1011.4
20260507084551 65 20 4.0 7.0 0.01 0.08 0.02 89 1010.8
20260507083058 66 22 0.0 3.0 0.01 0.08 0.02 91 1010.3
20260507081554 66 0 0.0 1.0 0.00 0.07 0.01 91 1010.3
20260507080116 66 0 0.0 3.0 0.01 0.07 0.01 91 1010.0
20260507074558 66 0 0.0 2.0 0.01 0.07 0.01 90 1010.0
20260507073058 67 0 0.0 4.0 0.01 0.07 0.01 89 1010.0
20260507071609 68 0 0.0 0.0 0.01 0.07 0.01 88 1010.2
20260507070057 68 0 0.0 2.0 0.00 0.06 0.00 87 1010.1
20260507064555 68 216 0.0 3.0 0.00 0.06 0.00 86 1009.8
20260507063056 68 0 0.0 2.0 0.00 0.06 0.00 86 1009.8
20260507061558 68 0 0.0 5.0 0.00 0.06 0.00 86 1009.6
20260507060057 69 0 0.0 3.0 0.00 0.06 0.00 86 1009.8
20260507054554 68 0 0.0 2.0 0.00 0.06 0.00 86 1010.0
20260507053120 69 0 0.0 3.0 0.00 0.06 0.00 85 1010.1
20260507051605 68 0 0.0 7.0 0.00 0.06 0.00 86 1010.3
20260507050059 68 0 0.0 5.0 0.00 0.06 0.00 86 1010.8
20260507044608 68 0 0.0 1.0 0.00 0.06 0.00 86 1011.1
20260507043101 67 0 0.0 2.0 0.00 0.06 0.00 87 1011.3
20260507041557 68 0 0.0 3.0 0.00 0.06 0.00 87 1011.2
20260507040100 68 0 0.0 3.0 0.00 0.06 0.00 86 1010.9
20260507034556 67 0 0.0 3.0 0.00 0.06 0.06 86 1011.1
20260507033101 67 0 0.0 4.0 0.00 0.06 0.06 87 1010.6
20260507031556 67 0 0.0 3.0 0.00 0.06 0.06 87 1010.8
20260507030057 67 0 0.0 2.0 0.00 0.06 0.06 87 1010.4
20260507024601 67 0 0.0 5.0 0.00 0.06 0.06 87 1010.6
20260507023054 67 0 0.0 0.0 0.00 0.06 0.06 87 1010.9
20260507021555 67 0 0.0 2.0 0.00 0.06 0.06 87 1011.0
20260507020053 67 0 0.0 1.0 0.00 0.06 0.06 87 1011.1
20260507014602 67 0 0.0 0.0 0.00 0.06 0.06 87 1011.2
20260507013053 67 0 0.0 1.0 0.00 0.06 0.06 87 1010.7
20260507011552 67 0 0.0 3.0 0.00 0.06 0.06 87 1010.9
20260507004601 68 0 0.0 1.0 0.00 0.06 0.06 85 1011.1
20260507003056 68 0 0.0 4.0 0.00 0.06 0.06 85 1011.0
20260507001555 68 0 0.0 2.0 0.00 0.06 0.06 85 1011.2
20260507000057 69 0 0.0 0.0 0.00 0.06 0.06 85 1011.1
20260506234554 69 0 0.0 2.0 0.00 0.06 0.06 84 1010.7
20260506233056 70 0 0.0 1.0 0.00 0.06 0.06 82 1010.8
20260506231558 70 0 0.0 2.0 0.00 0.06 0.06 82 1010.7
20260506230059 70 0 0.0 4.0 0.00 0.06 0.06 81 1010.8
20260506224556 71 0 0.0 1.0 0.00 0.06 0.06 80 1010.9
20260506223052 71 0 0.0 2.0 0.00 0.06 0.06 78 1010.8
20260506221555 71 313 0.0 3.0 0.00 0.06 0.06 79 1010.7
20260506220056 72 0 0.0 4.0 0.00 0.06 0.06 76 1010.7
20260506214604 72 0 1.0 7.0 0.00 0.06 0.06 75 1010.8
20260506213056 72 0 0.0 5.0 0.00 0.06 0.06 78 1011.1
20260506211603 71 0 0.0 5.0 0.00 0.06 0.06 79 1010.8
20260506210056 71 0 0.0 3.0 0.00 0.06 0.06 81 1010.8
20260506204552 71 0 0.0 4.0 0.00 0.06 0.06 80 1010.6
20260506203052 70 0 0.0 2.0 0.00 0.06 0.06 82 1010.7
20260506201552 70 0 0.0 1.0 0.00 0.06 0.06 83 1010.4
20260506200103 70 0 0.0 4.0 0.00 0.06 0.06 81 1010.4
20260506194606 69 0 0.0 3.0 0.00 0.06 0.06 84 1010.1
20260506193056 69 0 0.0 6.0 0.00 0.06 0.06 84 1010.5
20260506191605 67 0 0.0 5.0 0.00 0.06 0.06 85 1011.0
20260506190053 66 0 1.0 7.0 0.00 0.06 0.06 87 1010.9
20260506184554 66 0 1.0 5.0 0.00 0.06 0.06 87 1011.5
20260506183108 66 0 0.0 5.0 0.00 0.06 0.06 87 1012.0
20260506181601 65 0 0.0 5.0 0.00 0.06 0.06 87 1012.3
20260506180115 66 0 0.0 7.0 0.00 0.06 0.06 86 1012.5
20260506174554 66 0 0.0 8.0 0.00 0.06 0.06 84 1012.5
20260506173126 66 0 0.0 6.0 0.00 0.06 0.06 85 1012.5